| time (UTC) | temp C | wind direction | speed KPH | gust KPH | rain 1hr cm | rain 24hr cm | rain mn cm | humidity % | barometer mb |
| 20260507231531 | 8 | 19 | 0.0 | 1.6 | 0.00 | 0.08 | 0.00 | 87 | 1017.5 |
| 20260507230018 | 8 | 19 | 0.0 | 0.0 | 0.00 | 0.08 | 0.00 | 87 | 1017.5 |
| 20260507224520 | 8 | 19 | 0.0 | 1.6 | 0.00 | 0.08 | 0.00 | 88 | 1017.4 |
| 20260507223015 | 8 | 19 | 0.0 | 1.6 | 0.00 | 0.08 | 0.00 | 87 | 1017.3 |
| 20260507221516 | 8 | 19 | 0.0 | 4.8 | 0.00 | 0.08 | 0.00 | 88 | 1017.3 |
| 20260507220012 | 8 | 54 | 0.0 | 4.8 | 0.00 | 0.08 | 0.00 | 88 | 1017.3 |
| 20260507214511 | 9 | 55 | 0.0 | 3.2 | 0.00 | 0.13 | 0.08 | 88 | 1017.2 |
| 20260507213010 | 9 | 317 | 0.0 | 3.2 | 0.00 | 0.13 | 0.08 | 88 | 1017.0 |
| 20260507211511 | 9 | 351 | 0.0 | 6.4 | 0.00 | 0.13 | 0.08 | 88 | 1016.9 |
| 20260507210009 | 9 | 229 | 0.0 | 0.0 | 0.00 | 0.13 | 0.08 | 87 | 1017.0 |
| 20260507204507 | 9 | 228 | 0.0 | 0.0 | 0.00 | 0.25 | 0.08 | 87 | 1016.9 |
| 20260507203005 | 9 | 229 | 0.0 | 0.0 | 0.00 | 0.25 | 0.08 | 87 | 1016.7 |
| 20260507201505 | 9 | 229 | 0.0 | 0.0 | 0.00 | 0.25 | 0.08 | 87 | 1016.7 |
| 20260507200005 | 9 | 228 | 0.0 | 0.0 | 0.00 | 0.25 | 0.08 | 86 | 1016.7 |
| 20260507194502 | 9 | 229 | 0.0 | 1.6 | 0.00 | 0.71 | 0.08 | 86 | 1016.5 |
| 20260507193001 | 9 | 229 | 0.0 | 3.2 | 0.00 | 0.71 | 0.08 | 86 | 1016.3 |
| 20260507191600 | 9 | 229 | 0.0 | 4.8 | 0.00 | 0.71 | 0.08 | 85 | 1016.2 |
| 20260507190059 | 10 | 229 | 0.0 | 3.2 | 0.00 | 0.71 | 0.08 | 85 | 1016.0 |
| 20260507184558 | 10 | 261 | 0.0 | 1.6 | 0.00 | 0.71 | 0.08 | 84 | 1015.8 |
| 20260507183104 | 10 | 261 | 1.6 | 4.8 | 0.00 | 0.71 | 0.08 | 84 | 1015.7 |
| 20260507181555 | 10 | 265 | 0.0 | 4.8 | 0.00 | 0.71 | 0.08 | 84 | 1015.6 |
| 20260507180055 | 10 | 261 | 0.0 | 4.8 | 0.00 | 0.71 | 0.08 | 84 | 1015.4 |
| 20260507174605 | 10 | 273 | 0.0 | 4.8 | 0.00 | 1.07 | 0.08 | 84 | 1015.4 |
| 20260507173059 | 10 | 263 | 0.0 | 4.8 | 0.00 | 1.07 | 0.08 | 84 | 1015.2 |
| 20260507171608 | 10 | 283 | 1.6 | 4.8 | 0.00 | 1.07 | 0.08 | 84 | 1015.2 |
| 20260507170055 | 10 | 294 | 1.6 | 6.4 | 0.00 | 1.07 | 0.08 | 84 | 1015.0 |
| 20260507164602 | 11 | 270 | 0.0 | 6.4 | 0.00 | 1.07 | 0.08 | 85 | 1014.9 |
| 20260507163048 | 11 | 237 | 1.6 | 6.4 | 0.00 | 1.07 | 0.08 | 85 | 1014.8 |
| 20260507161550 | 11 | 240 | 1.6 | 6.4 | 0.00 | 1.07 | 0.08 | 87 | 1014.8 |
| 20260507160048 | 10 | 274 | 1.6 | 6.4 | 0.00 | 1.07 | 0.08 | 88 | 1014.8 |
| 20260507154546 | 10 | 250 | 1.6 | 6.4 | 0.00 | 1.07 | 0.08 | 86 | 1014.9 |
| 20260507153049 | 10 | 244 | 0.0 | 6.4 | 0.00 | 1.07 | 0.08 | 85 | 1014.9 |
| 20260507151545 | 10 | 301 | 1.6 | 6.4 | 0.00 | 1.07 | 0.08 | 85 | 1014.8 |
| 20260507150043 | 10 | 253 | 3.2 | 12.9 | 0.00 | 1.07 | 0.08 | 85 | 1014.7 |
| 20260507144541 | 10 | 247 | 1.6 | 8.0 | 0.00 | 1.07 | 0.08 | 85 | 1014.7 |
| 20260507143045 | 10 | 261 | 3.2 | 9.7 | 0.03 | 1.07 | 0.08 | 86 | 1014.5 |
| 20260507141545 | 10 | 277 | 4.8 | 14.5 | 0.03 | 1.07 | 0.08 | 86 | 1014.5 |
| 20260507140040 | 10 | 261 | 3.2 | 9.7 | 0.03 | 1.07 | 0.08 | 86 | 1014.4 |
| 20260507134547 | 10 | 290 | 3.2 | 9.7 | 0.03 | 1.07 | 0.08 | 85 | 1014.3 |
| 20260507133036 | 10 | 296 | 3.2 | 16.1 | 0.00 | 1.04 | 0.05 | 84 | 1014.3 |
| 20260507131539 | 11 | 248 | 3.2 | 6.4 | 0.00 | 1.04 | 0.05 | 86 | 1014.1 |
| 20260507130034 | 10 | 235 | 1.6 | 6.4 | 0.00 | 1.04 | 0.05 | 87 | 1014.0 |
| 20260507124533 | 10 | 273 | 1.6 | 4.8 | 0.00 | 1.04 | 0.05 | 86 | 1014.0 |
| 20260507123035 | 10 | 264 | 1.6 | 8.0 | 0.00 | 1.04 | 0.05 | 85 | 1013.9 |
| 20260507121530 | 11 | 277 | 3.2 | 12.9 | 0.00 | 1.04 | 0.05 | 86 | 1013.7 |
| 20260507120029 | 10 | 246 | 6.4 | 16.1 | 0.00 | 1.04 | 0.05 | 86 | 1013.4 |
| 20260507114531 | 10 | 235 | 3.2 | 14.5 | 0.00 | 1.04 | 0.05 | 86 | 1013.4 |
| 20260507113025 | 11 | 240 | 6.4 | 16.1 | 0.05 | 1.04 | 0.05 | 84 | 1013.0 |
| 20260507111524 | 11 | 227 | 4.8 | 12.9 | 0.05 | 1.04 | 0.05 | 87 | 1012.8 |
| 20260507110024 | 11 | 223 | 3.2 | 8.0 | 0.05 | 1.04 | 0.05 | 86 | 1012.8 |
| 20260507104525 | 10 | 232 | 4.8 | 9.7 | 0.05 | 1.04 | 0.05 | 85 | 1012.7 |
| 20260507103024 | 11 | 301 | 4.8 | 16.1 | 0.00 | 0.99 | 0.03 | 83 | 1012.7 |
| 20260507101521 | 12 | 236 | 6.4 | 14.5 | 0.00 | 0.99 | 0.03 | 85 | 1012.3 |
| 20260507100017 | 12 | 216 | 6.4 | 11.3 | 0.00 | 0.99 | 0.03 | 87 | 1012.3 |
| 20260507094626 | 11 | 215 | 6.4 | 14.5 | 0.00 | 0.99 | 0.03 | 87 | 1012.2 |
| 20260507093014 | 11 | 230 | 8.0 | 22.5 | 0.00 | 0.99 | 0.03 | 84 | 1012.2 |
| 20260507091513 | 12 | 211 | 8.0 | 16.1 | 0.00 | 0.99 | 0.03 | 82 | 1012.0 |
| 20260507090010 | 11 | 239 | 6.4 | 14.5 | 0.00 | 0.99 | 0.03 | 84 | 1011.9 |
| 20260507084506 | 11 | 208 | 4.8 | 17.7 | 0.00 | 0.99 | 0.03 | 86 | 1011.8 |
| 20260507083007 | 11 | 205 | 4.8 | 14.5 | 0.00 | 0.99 | 0.03 | 88 | 1011.7 |
| 20260507081512 | 10 | 226 | 4.8 | 11.3 | 0.00 | 0.99 | 0.03 | 88 | 1011.7 |
| 20260507080005 | 10 | 227 | 6.4 | 16.1 | 0.00 | 0.99 | 0.03 | 88 | 1011.7 |
| 20260507074515 | 10 | 217 | 8.0 | 16.1 | 0.00 | 0.99 | 0.03 | 86 | 1011.5 |
| 20260507073002 | 10 | 232 | 8.0 | 17.7 | 0.00 | 0.99 | 0.03 | 86 | 1011.3 |
| 20260507071501 | 10 | 242 | 9.7 | 16.1 | 0.00 | 0.99 | 0.03 | 85 | 1011.2 |
| 20260507070108 | 10 | 205 | 8.0 | 14.5 | 0.00 | 0.99 | 0.03 | 86 | 1011.0 |
| 20260507064600 | 10 | 229 | 6.4 | 14.5 | 0.00 | 0.99 | 0.03 | 87 | 1011.1 |
| 20260507063059 | 10 | 228 | 4.8 | 11.3 | 0.00 | 0.99 | 0.03 | 89 | 1010.9 |
| 20260507061557 | 10 | 222 | 8.0 | 12.9 | 0.00 | 0.99 | 0.03 | 89 | 1010.8 |
| 20260507060105 | 9 | 236 | 6.4 | 16.1 | 0.00 | 0.99 | 0.03 | 89 | 1010.7 |
| 20260507054556 | 9 | 236 | 4.8 | 11.3 | 0.00 | 0.99 | 0.03 | 90 | 1010.6 |
| 20260507053053 | 10 | 210 | 3.2 | 8.0 | 0.00 | 0.99 | 0.03 | 90 | 1010.4 |
| 20260507051548 | 9 | 248 | 1.6 | 11.3 | 0.00 | 0.99 | 0.03 | 90 | 1010.3 |
| 20260507050045 | 9 | 238 | 4.8 | 12.9 | 0.00 | 0.99 | 0.03 | 90 | 1010.2 |
| 20260507044544 | 9 | 269 | 3.2 | 14.5 | 0.00 | 0.99 | 0.03 | 90 | 1009.9 |
| 20260507043040 | 10 | 235 | 4.8 | 11.3 | 0.00 | 0.99 | 0.03 | 91 | 1009.8 |
| 20260507041538 | 10 | 196 | 4.8 | 9.7 | 0.00 | 0.99 | 0.03 | 91 | 1009.5 |
| 20260507040038 | 10 | 230 | 3.2 | 8.0 | 0.00 | 0.99 | 0.03 | 91 | 1009.3 |
| 20260507034551 | 10 | 240 | 4.8 | 12.9 | 0.00 | 0.99 | 0.03 | 91 | 1009.3 |
| 20260507033038 | 10 | 194 | 4.8 | 11.3 | 0.00 | 0.99 | 0.03 | 91 | 1009.2 |
| 20260507032159 | 10 | 203 | 4.8 | 11.3 | 0.00 | 0.99 | 0.03 | 91 | 1009.8 |
| 20260507031530 | 10 | 208 | 4.8 | 9.7 | 0.00 | 0.99 | 0.03 | 91 | 1009.1 |
| 20260507030029 | 10 | 199 | 4.8 | 9.7 | 0.00 | 0.99 | 0.03 | 91 | 1009.0 |
| 20260507024546 | 10 | 219 | 1.6 | 6.4 | 0.00 | 0.99 | 0.03 | 91 | 1008.8 |
| 20260507023027 | 10 | 210 | 3.2 | 8.0 | 0.00 | 0.99 | 0.03 | 91 | 1008.9 |
| 20260507022142 | 10 | 203 | 3.2 | 6.4 | 0.00 | 0.99 | 0.03 | 91 | 1009.7 |
| 20260507021525 | 10 | 222 | 3.2 | 11.3 | 0.00 | 0.99 | 0.03 | 91 | 1008.8 |
| 20260507020026 | 10 | 217 | 1.6 | 9.7 | 0.03 | 0.99 | 0.03 | 91 | 1008.8 |
| 20260507014535 | 10 | 239 | 1.6 | 6.4 | 0.03 | 0.99 | 0.03 | 91 | 1008.7 |
| 20260507013024 | 10 | 227 | 1.6 | 6.4 | 0.03 | 0.99 | 0.03 | 91 | 1008.6 |
| 20260507012125 | 11 | 225 | 1.6 | 3.2 | 0.03 | 0.99 | 0.03 | 91 | 1009.5 |
| 20260507011536 | 10 | 218 | 0.0 | 3.2 | 0.03 | 0.99 | 0.03 | 91 | 1008.7 |
| 20260507010021 | 10 | 218 | 0.0 | 8.0 | 0.00 | 0.99 | 0.00 | 91 | 1008.6 |
| 20260507004520 | 10 | 229 | 1.6 | 6.4 | 0.00 | 0.99 | 0.00 | 91 | 1008.5 |
| 20260507003021 | 10 | 231 | 3.2 | 8.0 | 0.00 | 0.99 | 0.00 | 91 | 1008.5 |
| 20260507002211 | 11 | 225 | 3.2 | 4.8 | 0.00 | 0.99 | 0.00 | 91 | 1009.2 |
| 20260507001518 | 11 | 229 | 3.2 | 9.7 | 0.00 | 0.99 | 0.00 | 91 | 1008.5 |
| 20260507000017 | 11 | 252 | 3.2 | 8.0 | 0.00 | 0.99 | 0.00 | 91 | 1008.5 |
| 20260506234516 | 11 | 224 | 1.6 | 6.4 | 0.00 | 0.99 | 0.00 | 92 | 1008.4 |
| 20260506233015 | 11 | 223 | 3.2 | 9.7 | 0.00 | 0.99 | 0.00 | 92 | 1008.4 |